• In Hungary
  • List of Countries
  • For 7 days
  • Water Temperature
  • Satellite Maps
  • Weather Map
  • News
  • Weather Widgets
  • user-avatar
    Login

    Hourly Weather Hasselt

    Today, 17 December, Sunday

    Time Temperature Precipitation Wind Pressure Humidity
    00:00 0°C° 0 mm 3 mps 761 mmHg 91%
    01:00 0°C° 0.1 mm 3 mps 761 mmHg 91%
    02:00 0°C° 0.1 mm 3 mps 761 mmHg 91%
    03:00 0°C° 0.1 mm 3 mps 762 mmHg 91%
    04:00 0°C° 0 mm 3 mps 762 mmHg 91%
    05:00 0°C° 0 mm 3 mps 762 mmHg 92%
    06:00 -1°C° 0 mm 2 mps 763 mmHg 93%
    07:00 +1°C° 0 mm 2 mps 763 mmHg 93%
    08:00 +1°C° 0 mm 2 mps 764 mmHg 92%
    09:00 0°C° 0 mm 3 mps 764 mmHg 91%
    10:00 +1°C° 0 mm 3 mps 764 mmHg 89%
    11:00 +3°C° 0 mm 3 mps 764 mmHg 86%
    12:00 +4°C° 0 mm 3 mps 764 mmHg 83%
    13:00 +3°C° 0 mm 3 mps 764 mmHg 85%
    14:00 +3°C° 0 mm 3 mps 764 mmHg 87%
    15:00 +2°C° 0 mm 3 mps 764 mmHg 88%
    16:00 +2°C° 0 mm 3 mps 764 mmHg 87%
    17:00 +1°C° 0 mm 4 mps 764 mmHg 86%
    18:00 +1°C° 0 mm 4 mps 764 mmHg 85%
    19:00 +1°C° 0.2 mm 4 mps 764 mmHg 84%
    20:00 +1°C° 0.2 mm 5 mps 764 mmHg 83%
    21:00 +1°C° 0.2 mm 5 mps 763 mmHg 82%
    22:00 +1°C° 0.6 mm 6 mps 762 mmHg 84%
    23:00 +1°C° 0.6 mm 6 mps 762 mmHg 86%

    Tomorrow, 18 December, Monday

    Time Temperature Precipitation Wind Pressure Humidity
    00:00 +2°C° 0.6 mm 6 mps 761 mmHg 88%
    01:00 +2°C° 0.4 mm 6 mps 761 mmHg 90%
    02:00 +2°C° 0.4 mm 5 mps 760 mmHg 92%
    03:00 +4°C° 0.4 mm 4 mps 760 mmHg 94%
    04:00 +4°C° 0.2 mm 4 mps 760 mmHg 94%
    05:00 +4°C° 0.2 mm 4 mps 760 mmHg 94%
    06:00 +4°C° 0.2 mm 4 mps 760 mmHg 94%
    07:00 +4°C° 0.2 mm 4 mps 761 mmHg 93%
    08:00 +5°C° 0.2 mm 4 mps 762 mmHg 91%
    09:00 +5°C° 0.2 mm 5 mps 763 mmHg 90%
    10:00 +5°C° 0 mm 5 mps 763 mmHg 86%
    11:00 +6°C° 0 mm 5 mps 763 mmHg 82%
    12:00 +6°C° 0 mm 5 mps 764 mmHg 78%
    13:00 +6°C° 0 mm 4 mps 764 mmHg 80%
    14:00 +5°C° 0 mm 3 mps 765 mmHg 83%
    15:00 +4°C° 0 mm 3 mps 765 mmHg 85%
    16:00 +4°C° 0 mm 3 mps 766 mmHg 87%
    17:00 +4°C° 0 mm 2 mps 767 mmHg 89%
    18:00 +4°C° 0 mm 2 mps 767 mmHg 91%
    19:00 +3°C° 0 mm 2 mps 768 mmHg 92%
    20:00 +3°C° 0 mm 2 mps 768 mmHg 93%
    21:00 +3°C° 0 mm 2 mps 769 mmHg 94%
    22:00 +3°C° 0 mm 2 mps 769 mmHg 94%
    23:00 +2°C° 0 mm 2 mps 770 mmHg 94%

    Day after tomorrow, 19 December, Tuesday

    Time Temperature Precipitation Wind Pressure Humidity
    00:00 +3°C° 0 mm 1 mps 770 mmHg 94%
    01:00 +3°C° 0 mm 1 mps 770 mmHg 94%
    02:00 +3°C° 0 mm 1 mps 771 mmHg 94%
    03:00 +3°C° 0 mm 1 mps 771 mmHg 94%
    04:00 +3°C° 0 mm 1 mps 771 mmHg 94%
    05:00 +3°C° 0 mm 1 mps 771 mmHg 94%
    06:00 +3°C° 0 mm 1 mps 771 mmHg 94%
    07:00 +3°C° 0 mm 1 mps 772 mmHg 94%
    08:00 +3°C° 0 mm 1 mps 772 mmHg 94%
    09:00 +3°C° 0 mm 2 mps 773 mmHg 94%
    10:00 +4°C° 0 mm 2 mps 773 mmHg 93%
    11:00 +5°C° 0 mm 2 mps 773 mmHg 91%
    12:00 +6°C° 0 mm 2 mps 773 mmHg 89%
    13:00 +5°C° 0 mm 2 mps 773 mmHg 91%
    14:00 +5°C° 0 mm 2 mps 772 mmHg 92%
    15:00 +5°C° 0 mm 2 mps 772 mmHg 94%
    16:00 +5°C° 0 mm 2 mps 772 mmHg 94%
    17:00 +4°C° 0 mm 2 mps 772 mmHg 94%
    18:00 +4°C° 0 mm 2 mps 772 mmHg 94%
    19:00 +4°C° 0 mm 2 mps 773 mmHg 93%
    20:00 +4°C° 0 mm 2 mps 773 mmHg 92%
    21:00 +3°C° 0 mm 3 mps 773 mmHg 91%
    22:00 +3°C° 0 mm 3 mps 773 mmHg 91%
    23:00 +3°C° 0 mm 3 mps 772 mmHg 90%

    20 December, Wednesday

    Time Temperature Precipitation Wind Pressure Humidity
    00:00 +3°C° 0 mm 3 mps 772 mmHg 90%
    01:00 +3°C° 0 mm 3 mps 772 mmHg 91%
    02:00 +3°C° 0 mm 3 mps 772 mmHg 93%
    03:00 +2°C° 0 mm 3 mps 772 mmHg 94%
    04:00 +2°C° 0 mm 3 mps 771 mmHg 95%
    05:00 +3°C° 0 mm 2 mps 771 mmHg 96%
    06:00 +3°C° 0 mm 2 mps 771 mmHg 97%
    07:00 +3°C° 0 mm 2 mps 771 mmHg 97%
    08:00 +4°C° 0 mm 2 mps 772 mmHg 97%
    09:00 +4°C° 0 mm 2 mps 772 mmHg 97%
    10:00 +5°C° 0.1 mm 2 mps 772 mmHg 97%
    11:00 +5°C° 0.1 mm 2 mps 771 mmHg 97%
    12:00 +6°C° 0.1 mm 2 mps 771 mmHg 97%
    13:00 +6°C° 0.1 mm 2 mps 771 mmHg 97%
    14:00 +6°C° 0.1 mm 2 mps 771 mmHg 97%
    15:00 +6°C° 0.1 mm 2 mps 771 mmHg 97%
    16:00 +5°C° 0 mm 3 mps 771 mmHg 97%
    17:00 +5°C° 0 mm 3 mps 772 mmHg 97%
    18:00 +7°C° 0 mm 3 mps 772 mmHg 97%
    19:00 +7°C° 0 mm 3 mps 772 mmHg 97%
    20:00 +7°C° 0 mm 3 mps 772 mmHg 97%
    21:00 +7°C° 0 mm 3 mps 772 mmHg 97%
    22:00 +8°C° 0.1 mm 3 mps 772 mmHg 97%
    23:00 +8°C° 0.1 mm 3 mps 772 mmHg 97%

    21 December, Thursday

    Time Temperature Precipitation Wind Pressure Humidity
    00:00 +8°C° 0.1 mm 3 mps 772 mmHg 97%
    01:00 +7°C° 0 mm 4 mps 771 mmHg 96%
    02:00 +8°C° 0 mm 4 mps 771 mmHg 95%
    03:00 +8°C° 0 mm 4 mps 771 mmHg 95%
    04:00 +8°C° 0.1 mm 4 mps 771 mmHg 95%
    05:00 +8°C° 0.1 mm 4 mps 771 mmHg 95%
    06:00 +8°C° 0.1 mm 5 mps 770 mmHg 95%
    07:00 +8°C° 0.5 mm 5 mps 770 mmHg 95%
    08:00 +8°C° 0.5 mm 5 mps 770 mmHg 95%
    09:00 +8°C° 0.5 mm 4 mps 770 mmHg 96%
    10:00 +8°C° 0.9 mm 4 mps 770 mmHg 96%
    11:00 +10°C° 0.9 mm 4 mps 770 mmHg 96%
    12:00 +10°C° 0.9 mm 4 mps 769 mmHg 96%
    13:00 +10°C° 0.4 mm 4 mps 769 mmHg 96%
    14:00 +10°C° 0.4 mm 4 mps 769 mmHg 96%
    15:00 +10°C° 0.4 mm 4 mps 768 mmHg 96%
    16:00 +9°C° 0.5 mm 5 mps 768 mmHg 95%
    17:00 +9°C° 0.5 mm 5 mps 768 mmHg 95%
    18:00 +9°C° 0.5 mm 5 mps 768 mmHg 95%
    19:00 +9°C° 1.3 mm 5 mps 768 mmHg 94%
    20:00 +9°C° 1.3 mm 5 mps 768 mmHg 94%
    21:00 +8°C° 1.3 mm 5 mps 769 mmHg 93%
    22:00 +8°C° 0.2 mm 5 mps 769 mmHg 91%
    23:00 +8°C° 0.2 mm 5 mps 770 mmHg 89%

    22 December, Friday

    Time Temperature Precipitation Wind Pressure Humidity
    00:00 +7°C° 0.2 mm 5 mps 771 mmHg 87%
    01:00 +6°C° 0.1 mm 4 mps 771 mmHg 88%
    02:00 +6°C° 0.1 mm 4 mps 772 mmHg 89%
    03:00 +5°C° 0.1 mm 4 mps 772 mmHg 90%
    04:00 +5°C° 0 mm 3 mps 773 mmHg 91%
    05:00 +4°C° 0 mm 3 mps 773 mmHg 91%
    06:00 +4°C° 0 mm 3 mps 774 mmHg 92%
    07:00 +4°C° 0 mm 3 mps 774 mmHg 90%
    08:00 +4°C° 0 mm 3 mps 775 mmHg 89%
    09:00 +4°C° 0 mm 3 mps 775 mmHg 88%
    10:00 +5°C° 0 mm 3 mps 776 mmHg 84%
    11:00 +6°C° 0 mm 4 mps 776 mmHg 80%
    12:00 +6°C° 0 mm 4 mps 776 mmHg 75%
    13:00 +6°C° 0 mm 4 mps 776 mmHg 78%
    14:00 +6°C° 0 mm 4 mps 776 mmHg 80%
    15:00 +5°C° 0 mm 3 mps 776 mmHg 83%
    16:00 +5°C° 0 mm 3 mps 776 mmHg 86%
    17:00 +4°C° 0 mm 3 mps 776 mmHg 89%
    18:00 +3°C° 0 mm 3 mps 776 mmHg 92%
    19:00 +3°C° 0 mm 3 mps 776 mmHg 92%
    20:00 +3°C° 0 mm 3 mps 776 mmHg 93%
    21:00 +3°C° 0 mm 3 mps 776 mmHg 93%
    22:00 +3°C° 0 mm 3 mps 776 mmHg 94%
    23:00 +3°C° 0 mm 3 mps 776 mmHg 94%
    Show more